Tracking 33203 objects as of 15-Feb-2026
HD Live streaming from Space Station
objects crossing your sky now

STARLINK-11623

Track STARLINK-11623 now!
10-day predictions
STARLINK-11623 is classified as:


NORAD ID: 63276
Int'l Code: 2025-053M
Perigee: 361.5 km
Apogee: 365.0 km
Inclination: 43.0 °
Period: 91.7 minutes
Semi major axis: 6734 km
RCS: Unknown
Launch date: March 15, 2025
Source: United States (US)
Launch site: AIR FORCE EASTERN TEST RANGE (AFETR)
Your satellite tracking list
Your tracking list is empty




NASA's NSSDC Master Catalog

Two Line Element Set (TLE):
1 63276U 25053M   26046.54958169  .00256718  00000-0  19317-2 0  9996
2 63276  42.9977 246.0223 0002591 270.2866  89.7705 15.70977534 54172
Source of the keplerian elements: AFSPC